sat.trackr.live / text

‹ back to catalog

STARLINK-36577

NORAD 67583 · 2026-016Y

PAYLOAD ACTIVE UNKNOWN

§ Identity

Operator
Country
US
Launch date
2026-01-25
Launch site
AFWTR
Launch vehicle
Mass (kg)
RCS (m²)

Purposes: comms

External: N2YO · Heavens-Above · Gunter

§ Orbital elements

Epoch: 2026-05-25T02:51:31.694976Z

Period
93.91 min
Inclination
97.2846°
Eccentricity
0.0001016
Mean motion
15.33446979 rev/d
Perigee alt
464.8 km
Apogee alt
466.2 km
Semi-major
6,843.7 km
B*
4.5042e-4
RAAN
205.5498°
Arg perigee
86.1415°
Mean anomaly
273.9944°
Rev number
1,858

§ Raw data

STARLINK-365771 67583U 26016Y   26145.11911684  .00014495  00000+0  45042-3 0  99932 67583  97.2846 205.5498 0001016  86.1415 273.9944 15.33446979 18584

JSON: /api/v1/satellites/67583 · /tle

For live sub-satellite position, see the globe view (requires WebGL).

§ Visibility from observer

Set your observer location to see the next 7 days of passes ≥ 10°. The values pass through the URL so the page stays shareable.

No JS? Fill the form by hand. The geolocation button needs JavaScript.